Regional Weather Roundup
Issued by NWS

Home | Current Version | Previous Version | Graphics & Text | Print | Product List | Glossary On
Versions: 1 2 3 4 5 6 7 8 9 10 11 12 13 14 15 16 17 18 19 20 21 22 23 24 25 26 27 28 29 30 31 32 33 34 35 36 37 38 39 40 41 42 43 44 45 46 47 48 49 50
190
ASUS45 KTFX 261310
RWRMT
MONTANA REGIONAL WEATHER ROUNDUP
NATIONAL WEATHER SERVICE GREAT FALLS MT
700 AM MDT THU MAY 26 2016

NOTE: "FAIR" INDICATES FEW OR NO CLOUDS BELOW 12000 FEET WITH NO
SIGNIFICANT WEATHER AND/OR OBSTRUCTIONS TO VISIBILITY.

MTZ001>007-043-261400-
WEST OF THE DIVIDE

CITY           SKY/WX    TMP DP  RH WIND       PRES   REMARKS
KALISPELL      CLOUDY    49  49 100 CALM      29.99R
MISSOULA       CLOUDY    50  46  86 CALM      30.04R
BUTTE          CLOUDY    40  35  83 CALM      30.06F
MULLAN PASS    CLOUDY    41  39  93 CALM      30.07S
ANACONDA         N/A     46  39  76 CALM      30.05S
DEER LODGE       N/A     48  45  87 CALM      30.05S
EUREKA           N/A     54  46  76 CALM      29.97S
HAMILTON         N/A     48  41  76 S6        30.05R
LIBBY            N/A     48  46  93 CALM      29.99F
$$

MTZ008-052>055-261400-
SOUTHWEST MONTANA

CITY           SKY/WX    TMP DP  RH WIND       PRES   REMARKS
BOZEMAN        CLOUDY    48  43  82 S3        30.02S
DILLON         SUNNY     42  35  76 SW10      30.05R
ENNIS          PTSUNNY   41  36  81 SE5       30.11R
$$

MTZ009-010-012-014-046-048-049-054-261400-
EAST SLOPES AND CENTRAL MONTANA

CITY           SKY/WX    TMP DP  RH WIND       PRES   REMARKS
CUT BANK       CLOUDY    49  46  90 N9        29.96S
GREAT FALLS    PTSUNNY   47  43  86 SW7       29.96R
MALMSTROM AFB  PTSUNNY   48  46  93 SW9       29.96S
HELENA         CLOUDY    48  44  86 NE3       30.00R
CHOTEAU          N/A     46  45  93 W3        29.98R
$$

MTZ011-013-016-021-045-047-050-051-261400-
NORTH CENTRAL MONTANA

CITY           SKY/WX    TMP DP  RH WIND       PRES   REMARKS
HAVRE            N/A    N/A N/A N/A MISG      29.93R
LEWISTOWN      PTSUNNY   48  43  82 W8        29.94S
N BAR RANCH      N/A     46  43  87 NW10      29.96R
CHINOOK          N/A     46  46 100 W7        29.92S
$$

MTZ017>020-022>027-061-062-261400-
NORTHEAST MONTANA

CITY           SKY/WX    TMP DP  RH WIND       PRES   REMARKS
GLASGOW        CLOUDY    46  44  93 W7        29.85R
JORDAN           N/A     49  46  90 W7        29.87R
SIDNEY         PTSUNNY   53  49  86 SE5       29.83R
WOLF POINT     CLOUDY    48  45  89 SW6       29.84R
$$

MTZ028>42-056>058-261400-
SOUTHCENTRAL AND SOUTHEAST MONTANA

CITY           SKY/WX    TMP DP  RH WIND       PRES   REMARKS
BAKER          MOSUNNY   50  45  83 W12       29.87S
BILLINGS       MOSUNNY   50  43  77 SW12      29.94R
LIVINGSTON     CLOUDY    47  39  74 NW9       30.00R
MILES CITY     CLOUDY    51  47  86 W9        29.87S
FORSYTH          N/A     48  48 100 W7        29.89S
$$

REGIONAL REPORTS...DAKOTAS

CITY           SKY/WX    TMP DP  RH WIND       PRES   REMARKS
WILLISTON      CLOUDY    49  48  97 NW5       29.82R
MINOT          CLOUDY    58  54  86 SW8       29.77R
DICKINSON      CLOUDY    50  46  86 W10       29.81R
BEACH          PTSUNNY   50  50 100 W13       29.87S
CROSBY         CLOUDY    54  54 100 CALM      29.81R FOG
WATFORD CITY   FOG       45  45 100 N6        29.81F VSB<1/4
BISMARCK       SUNNY     51  46  83 W6        29.83R
GRAND FORKS    CLOUDY    59  55  87 SW8       29.73R
FARGO          SUNNY     58  54  86 SW7       29.75S
BUFFALO SD       N/A     47  42  83 SW7       29.83R
RAPID CITY     SUNNY     52  46  80 N9        29.91R
$$

REGIONAL REPORTS...WYOMING/IDAHO/WASHINGTON

CITY           SKY/WX    TMP DP  RH WIND       PRES   REMARKS
GILLETTE       CLOUDY    47  41  80 W12       29.95R
SHERIDAN       SUNNY     49  43  80 CALM      29.95R
BUFFALO WY     PTSUNNY   48  38  68 W12       29.97S
CODY           CLOUDY    43  41  93 CALM      29.99S
YELLOWSTONE LA   N/A     33  31  92 CALM      30.12S
IDAHO FALLS    MOSUNNY   38  35  89 N3        30.05R
SALMON         CLEAR     39  34  81 SW3       30.08S
BOISE          CLEAR     47  40  76 S7        30.02R
SPOKANE        MOCLDY    48  43  82 S5        30.03R
$$

REGIONAL REPORTS...ALBERTA

CITY           SKY/WX    TMP DP  RH WIND       PRES   REMARKS
EDMONTON       SUNNY     54  48  82 NW2       29.88S
CALGARY        PTSUNNY   48  46  93 VRB3      29.94R
LETHBRIDGE     PTSUNNY   50  46  87 SW2       29.94R
MEDICINE HAT   MOSUNNY   45  43  93 SW6       29.93S
WATERTON GATE    N/A     52  43  71 SW12G20     N/A
CARDSTON         N/A     50  46  87 SE2         N/A
MILK RIVER       N/A     48  45  87 W8          N/A
$$

REGIONAL REPORTS...SASKATCHEWAN

CITY           SKY/WX    TMP DP  RH WIND       PRES   REMARKS
SWIFT CURRENT  LGT RAIN  50  50 100 N9G17     29.90R
SASKATOON      CLOUDY    55  48  76 NE7       29.90S
VAL MARIE        N/A     50  48  93 N10         N/A
ROCKGLEN         N/A     48  48 100 N9          N/A
$$




USA.gov is the U.S. government's official web portal to all federal, state and local government web resources and services.